Simultaneous Nadir Overpasses (SNOs) Predictions

Prediction of SNOs between GOES-15 and NPP Satellite Orbit:

Table of predicted SNOs for the next 14.0 days since TLE Epoch: 7/6/2013
Index Date Time (GOES-15) GOES-15 Lat,Lon NPP Lat,Lon Distance(km) Time Diff (sec)
1 07/06/2013 22:39:47 0.18,-135.18 -0.66,-139.01 436.81 80
2 07/07/2013 22:23:42 0.17,-135.20 0.32,-134.47 82.64 80
3 07/10/2013 10:26:45 -0.18,-135.25 -0.20,-135.21 5.37 80
4 07/12/2013 22:27:16 0.19,-135.29 0.04,-135.97 77.43 80
5 07/13/2013 22:11:10 0.18,-135.31 1.03,-131.43 441.29 80
6 07/15/2013 10:30:18 -0.20,-135.33 0.08,-136.71 156.35 80
7 07/16/2013 10:14:13 -0.20,-135.34 -0.91,-132.17 361.73 80
8 07/17/2013 22:33:29 0.22,-135.35 -0.23,-137.47 241.77 80
9 07/18/2013 22:17:24
